• In India
  • List of Countries
  • For 7 days
  • Water Temperature
  • Satellite Maps
  • Weather Map
  • Weather Widgets
  • user-avatar
    Login

    Hourly Weather Popel'nyky

    Today, 21 June, Thursday

    Time Temperature Precipitation Wind Pressure Humidity
    00:00 +23°C° 0 mm 1 mps 742 mmHg 92%
    01:00 +22°C° 0 mm 1 mps 742 mmHg 94%
    02:00 +16°C° 0 mm 0 mps 742 mmHg 98%
    03:00 +20°C° 0 mm 1 mps 742 mmHg 92%
    04:00 +19°C° 0 mm 1 mps 741 mmHg 93%
    05:00 +17°C° 0 mm 0 mps 741 mmHg 89%
    06:00 +20°C° 0 mm 1 mps 741 mmHg 93%
    07:00 +19°C° 0 mm 0 mps 741 mmHg 94%
    08:00 +22°C° 0 mm 1 mps 741 mmHg 90%
    09:00 +24°C° 0 mm 1 mps 741 mmHg 87%
    10:00 +25°C° 0 mm 1 mps 740 mmHg 85%
    11:00 +26°C° 0 mm 1 mps 740 mmHg 83%
    12:00 +27°C° 0 mm 1 mps 740 mmHg 76%
    13:00 +28°C° 0 mm 2 mps 739 mmHg 76%
    14:00 +29°C° 0 mm 1 mps 738 mmHg 70%
    15:00 +29°C° 0 mm 1 mps 738 mmHg 66%
    16:00 +27°C° 0 mm 4 mps 737 mmHg 82%
    17:00 +27°C° 0 mm 2 mps 736 mmHg 77%
    18:00 +26°C° 0 mm 0 mps 736 mmHg 76%
    19:00 +27°C° 0 mm 2 mps 735 mmHg 83%
    20:00 +26°C° 0 mm 2 mps 735 mmHg 86%
    21:00 +25°C° 0 mm 2 mps 735 mmHg 93%
    22:00 +24°C° 0 mm 2 mps 734 mmHg 95%
    23:00 +24°C° 0 mm 1 mps 734 mmHg 95%

    Tomorrow, 22 June, Friday

    Time Temperature Precipitation Wind Pressure Humidity
    00:00 +23°C° 0 mm 2 mps 734 mmHg 91%
    01:00 +23°C° 0 mm 2 mps 733 mmHg 87%
    02:00 +21°C° 0 mm 2 mps 734 mmHg 88%
    03:00 +20°C° 0 mm 2 mps 733 mmHg 89%
    04:00 +22°C° 0 mm 1 mps 733 mmHg 87%
    05:00 +20°C° 0 mm 2 mps 734 mmHg 91%
    06:00 +21°C° 0 mm 2 mps 734 mmHg 90%
    07:00 +19°C° 0.1 mm 6 mps 735 mmHg 93%
    08:00 +20°C° 0 mm 6 mps 735 mmHg 89%
    09:00 +19°C° 0 mm 5 mps 736 mmHg 90%
    10:00 +17°C° 0 mm 7 mps 736 mmHg 89%
    11:00 +16°C° 0 mm 6 mps 736 mmHg 90%
    12:00 +17°C° 0 mm 6 mps 736 mmHg 87%
    13:00 +17°C° 0 mm 6 mps 736 mmHg 89%
    14:00 +17°C° 0 mm 5 mps 736 mmHg 87%
    15:00 +18°C° 0 mm 4 mps 736 mmHg 88%
    16:00 +18°C° 0 mm 4 mps 736 mmHg 83%
    17:00 +19°C° 0 mm 5 mps 736 mmHg 78%
    18:00 +19°C° 0 mm 5 mps 736 mmHg 80%
    19:00 +18°C° 0 mm 4 mps 736 mmHg 83%
    20:00 +18°C° 0 mm 3 mps 736 mmHg 89%
    21:00 +17°C° 0 mm 4 mps 736 mmHg 91%
    22:00 +15°C° 0 mm 5 mps 736 mmHg 86%
    23:00 +13°C° 0 mm 5 mps 736 mmHg 96%

    Day after tomorrow, 23 June, Saturday

    Time Temperature Precipitation Wind Pressure Humidity
    00:00 +13°C° 0.1 mm 5 mps 737 mmHg 98%
    01:00 +12°C° 0.6 mm 3 mps 736 mmHg 97%
    02:00 +13°C° 0 mm 4 mps 737 mmHg 92%
    03:00 +13°C° 0 mm 3 mps 736 mmHg 94%
    04:00 +13°C° 0 mm 3 mps 736 mmHg 95%
    05:00 +12°C° 0 mm 4 mps 736 mmHg 94%
    06:00 +12°C° 0 mm 5 mps 736 mmHg 93%
    07:00 +13°C° 0 mm 4 mps 737 mmHg 92%
    08:00 +15°C° 0 mm 5 mps 737 mmHg 90%
    09:00 +15°C° 0 mm 5 mps 737 mmHg 87%
    10:00 +16°C° 0 mm 5 mps 737 mmHg 85%
    11:00 +16°C° 0 mm 5 mps 737 mmHg 82%
    12:00 +17°C° 0.1 mm 5 mps 737 mmHg 79%
    13:00 +19°C° 0 mm 5 mps 737 mmHg 79%
    14:00 +19°C° 0 mm 4 mps 736 mmHg 74%
    15:00 +18°C° 0.3 mm 2 mps 736 mmHg 69%
    16:00 +19°C° 0 mm 4 mps 736 mmHg 72%
    17:00 +20°C° 0 mm 4 mps 736 mmHg 72%
    18:00 +19°C° 0 mm 3 mps 736 mmHg 79%
    19:00 +19°C° 0 mm 3 mps 736 mmHg 76%
    20:00 +14°C° 0.8 mm 7 mps 737 mmHg 93%
    21:00 +15°C° 0.3 mm 1 mps 737 mmHg 94%
    22:00 +15°C° 0 mm 2 mps 737 mmHg 93%
    23:00 +14°C° 0 mm 3 mps 737 mmHg 91%

    24 June, Sunday

    Time Temperature Precipitation Wind Pressure Humidity
    00:00 +14°C° 0 mm 2 mps 737 mmHg 93%
    01:00 +14°C° 0 mm 2 mps 737 mmHg 92%
    02:00 +13°C° 0 mm 2 mps 737 mmHg 91%
    03:00 +13°C° 0 mm 1 mps 737 mmHg 89%
    04:00 +13°C° 0 mm 1 mps 737 mmHg 87%
    05:00 +13°C° 0 mm 1 mps 737 mmHg 85%
    06:00 +13°C° 0 mm 2 mps 738 mmHg 90%
    07:00 +15°C° 0 mm 1 mps 738 mmHg 88%
    08:00 +16°C° 0 mm 3 mps 738 mmHg 77%
    09:00 +17°C° 0 mm 2 mps 739 mmHg 75%
    10:00 +18°C° 0 mm 2 mps 739 mmHg 74%
    11:00 +19°C° 0 mm 2 mps 739 mmHg 73%
    12:00 +20°C° 0 mm 3 mps 739 mmHg 74%
    13:00 +19°C° 0.6 mm 3 mps 739 mmHg 80%
    14:00 +19°C° 0.1 mm 3 mps 738 mmHg 77%
    15:00 +20°C° 0 mm 2 mps 739 mmHg 70%
    16:00 +20°C° 0 mm 3 mps 738 mmHg 77%
    17:00 +18°C° 1.3 mm 2 mps 738 mmHg 79%
    18:00 +20°C° 0 mm 2 mps 739 mmHg 73%
    19:00 +19°C° 0 mm 2 mps 739 mmHg 82%
    20:00 +17°C° 0 mm 0 mps 739 mmHg 89%
    21:00 +17°C° 0 mm 0 mps 739 mmHg 86%
    22:00 +16°C° 0 mm 0 mps 739 mmHg 86%
    23:00 +16°C° 0 mm 0 mps 740 mmHg 88%

    25 June, Monday

    Time Temperature Precipitation Wind Pressure Humidity
    00:00 +15°C° 0 mm 0 mps 740 mmHg 90%
    01:00 +16°C° 0 mm 1 mps 739 mmHg 92%
    02:00 +15°C° 0 mm 1 mps 740 mmHg 91%

    26 June, Tuesday

    Time Temperature Precipitation Wind Pressure Humidity
    Show more